Location: Cahas Mountain Overlook
(37.0833°N, 80.1000°W)
Time: 00:54:05
(UTC-05:00)

A-11 Canister half - Visible Passes

Search period start: 29 November 2023 00:00
Search period end: 09 December 2023 00:00
Orbit: 1514 x 1685 km, 47.2° (Epoch: 28 November)

Date Brightness Start Highest point End Pass type
(mag) Time Alt. Az. Time Alt. Az. Time Alt. Az.
29 Nov 9.9 03:17:19 42° NE 03:17:19 42° NE 03:23:40 10° ENE visible
29 Nov 9.6 05:15:31 30° NW 05:20:18 47° N 05:30:03 10° ENE visible
30 Nov 10.2 02:55:41 33° NE 02:55:41 33° NE 03:00:38 10° ENE visible
30 Nov 9.6 04:53:52 37° NW 04:57:12 47° N 05:06:55 10° ENE visible
01 Dec 10.6 02:34:01 25° NE 02:34:01 25° NE 02:37:36 10° ENE visible
01 Dec 9.5 04:32:13 43° NNW 04:34:06 47° N 04:43:48 10° ENE visible
01 Dec 9.4 06:30:36 10° WNW 06:40:38 67° NNE 06:50:47 10° ESE visible
02 Dec 10.9 02:12:22 19° NE 02:12:22 19° NE 02:14:34 10° ENE visible
02 Dec 9.5 04:10:33 47° N 04:11:00 47° N 04:20:42 10° ENE visible
02 Dec 9.4 06:08:45 14° WNW 06:17:35 65° NNE 06:27:42 10° ESE visible
03 Dec 11.2 01:50:42 13° ENE 01:50:42 13° ENE 01:51:32 10° ENE visible
03 Dec 9.6 03:48:54 46° NNE 03:48:54 46° NNE 03:57:36 10° ENE visible
03 Dec 9.4 05:47:06 20° NW 05:54:31 62° NNE 06:04:37 10° ESE visible
04 Dec 9.9 03:27:15 41° NNE 03:27:15 41° NNE 03:34:29 10° ENE visible
04 Dec 9.4 05:25:27 27° NW 05:31:28 60° NNE 05:41:31 10° E visible
05 Dec 10.2 03:05:36 34° NE 03:05:36 34° NE 03:11:23 10° ENE visible
05 Dec 9.4 05:03:48 34° NW 05:08:24 59° NNE 05:18:24 10° E visible
06 Dec 10.5 02:43:59 27° NE 02:43:59 27° NE 02:48:17 10° ENE visible
06 Dec 9.4 04:42:11 43° NNW 04:45:20 57° NNE 04:55:18 10° E visible
06 Dec 9.3 06:40:50 10° WNW 06:50:49 70° SW 07:00:54 10° SE visible
07 Dec 10.8 02:22:22 21° ENE 02:22:22 21° ENE 02:25:11 10° ENE visible
07 Dec 9.3 04:20:34 51° NNW 04:22:16 55° NNE 04:32:11 10° E visible
07 Dec 9.2 06:18:46 14° WNW 06:27:50 74° SW 06:37:57 10° SE visible
08 Dec 11.1 02:00:48 15° ENE 02:00:48 15° ENE 02:02:06 10° ENE visible
08 Dec 9.4 03:59:00 54° NNE 03:59:11 54° NNE 04:09:04 10° E visible
08 Dec 9.2 05:57:12 20° WNW 06:04:51 78° SW 06:15:01 10° SE visible
